Weather reports worldwide

Advertisment
Thomastown, United Kingdom (3901): temperature & dewpoint: 14.06.2019 05:00:00 - 20.06.2019 05:00:00 (BST)Thomastown, United Kingdom (3901): temperature -20cm & temperature -100cm: 14.06.2019 05:00:00 - 20.06.2019 05:00:00 (BST)Thomastown, United Kingdom (3901): wind speed & gusts: 14.06.2019 05:00:00 - 20.06.2019 05:00:00 (BST)Thomastown, United Kingdom (3901): wind direction: 14.06.2019 05:00:00 - 20.06.2019 05:00:00 (BST)Thomastown, United Kingdom (3901): reduced air pressure: 14.06.2019 05:00:00 - 20.06.2019 05:00:00 (BST)Thomastown, United Kingdom (3901): visibility: 14.06.2019 05:00:00 - 20.06.2019 05:00:00 (BST)Thomastown, United Kingdom (3901): sunshine duration: 14.06.2019 05:00:00 - 20.06.2019 05:00:00 (BST)Thomastown, United Kingdom (3901): precipitation: 14.06.2019 05:00:00 - 20.06.2019 05:00:00 (BST)
Date & Time tt [°C] td [°C] tt -20cm [°C] tt -100cm [°C] ff [km/h] ff [kn] fx [km/h] fx [kn] dd ppp [hPa] vv [km] sd [min] rr [mm]
20.06.2019 05:00:00 7,7 6,6 - - 5 3 - - S 1007,9 35 0 -
20.06.2019 04:00:00 7,9 7,0 - - 8 4 - - WSW 1007,8 25 0 0,0
20.06.2019 03:00:00 8,2 7,2 - - 9 5 - - SSW 1007,8 29 0 0,0
20.06.2019 02:00:00 8,5 7,6 - - 5 3 - - SSE 1007,7 29 0 0,0
20.06.2019 01:00:00 8,6 7,4 - - 4 2 - - NW 1007,6 35 - 0,0
20.06.2019 00:00:00 9,6 8,5 - - 9 5 - - SW 1007,4 45 0 0,0
19.06.2019 23:00:00 10,1 9,0 - - 8 4 - - SSW 1007,3 14 0 0,0
19.06.2019 22:00:00 10,2 9,3 - - 2 1 - - SW 1007,1 50 0 0,0
19.06.2019 21:00:00 10,6 9,4 - - 13 7 - - W 1006,8 50 0 0,2
19.06.2019 20:00:00 11,8 10,6 - - 9 5 - - SW 1006,3 45 0 0,4
19.06.2019 19:00:00 12,5 11,2 - - 9 5 - - WSW 1006,2 45 0 1,2
19.06.2019 18:00:00 14,0 9,1 - - 16 9 - - W 1006,1 50 0 0,0
19.06.2019 17:00:00 14,5 11,6 - - 11 6 - - NW 1006,3 35 6 0,0
19.06.2019 16:00:00 14,5 10,8 - - 9 5 - - WNW 1006,5 50 6 0,0
19.06.2019 15:00:00 16,8 11,1 - - 13 7 - - W 1006,7 35 18 0,0
19.06.2019 14:00:00 15,0 10,4 - - 11 6 - - W 1007,1 50 24 0,2
19.06.2019 13:00:00 14,7 9,9 - - 13 7 - - W 1007,1 45 18 0,0
19.06.2019 12:00:00 14,8 10,9 - - 4 2 - - NW 1007,2 35 6 0,0
19.06.2019 11:00:00 13,7 9,3 - - 15 8 - - WSW 1007,3 50 18 0,0
19.06.2019 10:00:00 12,3 10,3 15,7 12,7 9 5 - - SSW 1007,7 50 0 0,0
19.06.2019 09:00:00 11,0 9,8 - - 9 5 - - S 1008,2 30 0 0,0
19.06.2019 08:00:00 11,0 9,9 - - 9 5 - - SSW 1008,2 45 6 0,0
19.06.2019 07:00:00 9,3 9,0 - - 5 3 - - S 1008,3 24 0 0,0
19.06.2019 06:00:00 8,1 7,8 - - 5 3 - - ESE 1008,4 18 0 0,0
19.06.2019 05:00:00 7,6 7,2 - - 5 3 - - ESE 1008,5 15 0 0,0
19.06.2019 04:00:00 7,6 7,0 - - 5 3 - - S 1008,8 15 0 0,0
19.06.2019 03:00:00 8,4 7,9 - - 4 2 - - ESE 1009,0 29 0 0,0
19.06.2019 02:00:00 9,4 8,8 - - 13 7 - - SSW 1009,1 35 0 0,0
19.06.2019 01:00:00 9,8 9,3 - - 5 3 - - S 1009,7 10 - 0,0
19.06.2019 00:00:00 10,6 9,9 - - 2 1 - - S 1009,9 18 0 0,0
18.06.2019 23:00:00 10,7 9,5 - - 4 2 - - N 1010,1 21 0 0,0
18.06.2019 22:00:00 11,9 10,0 - - 8 4 - - NNW 1010,0 25 0 0,0
18.06.2019 21:00:00 13,6 11,1 - - 4 2 - - NW 1010,0 35 0 0,0
18.06.2019 20:00:00 14,7 11,8 - - 8 4 - - NE 1009,8 12 6 0,2
18.06.2019 19:00:00 15,3 10,9 - - 9 5 - - NNW 1009,8 50 36 0,0
18.06.2019 18:00:00 14,8 10,4 - - 15 8 - - NNW 1009,9 40 18 0,0
18.06.2019 17:00:00 16,6 11,8 - - 8 4 - - NW 1010,0 45 18 0,0
18.06.2019 16:00:00 15,9 10,0 - - 11 6 - - WSW 1010,4 50 0 0,0
18.06.2019 15:00:00 15,7 9,3 - - 8 4 - - WSW 1010,5 45 0 0,0
18.06.2019 14:00:00 15,3 10,3 - - 11 6 - - NW 1010,6 35 0 0,0
18.06.2019 13:00:00 15,5 9,6 - - 13 7 - - WSW 1010,8 50 18 0,0
18.06.2019 12:00:00 14,7 9,8 - - 15 8 - - WSW 1011,0 40 12 0,0
18.06.2019 11:00:00 15,1 10,8 - - 16 9 - - SW 1011,0 40 30 0,0
18.06.2019 10:00:00 12,8 9,2 15,5 12,7 15 8 - - WSW 1011,2 45 12 0,0
18.06.2019 09:00:00 12,4 9,1 - - 16 9 - - SW 1011,2 50 24 0,0
18.06.2019 08:00:00 10,8 8,8 - - 15 8 - - SW 1011,2 35 30 0,0
18.06.2019 07:00:00 10,6 8,0 - - 11 6 - - WSW 1011,0 35 48 0,0
18.06.2019 06:00:00 9,7 7,8 - - 4 2 - - SW 1010,9 35 0 0,0
18.06.2019 05:00:00 10,1 8,1 - - 11 6 - - SW 1010,5 40 0 0,0
18.06.2019 04:00:00 10,2 8,7 - - 9 5 - - SW 1010,4 40 0 0,0
18.06.2019 03:00:00 10,2 9,0 - - 11 6 - - SSW 1010,7 35 0 0,0
18.06.2019 02:00:00 10,5 9,2 - - 9 5 - - S 1010,9 35 0 0,0
18.06.2019 01:00:00 11,2 9,4 - - 9 5 - - S 1011,0 45 - 0,0
18.06.2019 00:00:00 11,4 9,5 - - 11 6 - - SSW 1011,0 45 0 0,0
17.06.2019 23:00:00 11,9 9,9 - - 13 7 - - SW 1010,7 45 0 0,0
17.06.2019 22:00:00 12,8 10,2 - - 8 4 - - SSW 1010,4 50 30 0,0
17.06.2019 21:00:00 13,8 10,8 - - 8 4 - - SW 1010,1 50 12 0,0
17.06.2019 20:00:00 13,3 11,6 - - 4 2 - - ESE 1009,7 50 0 0,0
17.06.2019 19:00:00 12,4 11,1 - - 8 4 - - NW 1009,8 10 6 0,4
17.06.2019 18:00:00 13,2 11,5 - - 9 5 - - SSW 1009,7 35 6 0,6
17.06.2019 17:00:00 12,7 10,3 - - 9 5 - - W 1009,4 10 0 0,8
17.06.2019 16:00:00 12,0 9,8 - - 5 3 - - WSW 1009,4 24 6 0,4
17.06.2019 15:00:00 12,8 11,5 - - 13 7 - - SW 1009,1 45 0 2,6
17.06.2019 14:00:00 13,0 10,7 - - 15 8 - - SW 1008,4 9 6 1,0
17.06.2019 13:00:00 11,5 9,7 - - 18 10 - - W 1008,0 8 6 2,4
17.06.2019 12:00:00 15,4 11,2 - - 21 11 - - SSW 1007,1 45 24 0,0
17.06.2019 11:00:00 12,9 10,1 - - 28 15 52 28 SSW 1006,8 17 42 0,0
17.06.2019 10:00:00 12,3 10,3 15,7 12,7 28 15 - - SSW 1006,7 30 0 0,2
17.06.2019 09:00:00 11,9 10,5 - - 26 14 - - SSW 1006,6 16 0 0,2
17.06.2019 08:00:00 11,4 9,9 - - 22 12 - - S 1006,5 29 0 0,0
17.06.2019 07:00:00 10,8 9,6 - - 24 13 - - S 1006,4 26 0 0,0
17.06.2019 06:00:00 10,5 9,4 - - 21 11 - - S 1006,4 28 0 0,0
17.06.2019 05:00:00 10,7 9,6 - - 21 11 - - S 1006,4 26 0 0,0
17.06.2019 04:00:00 10,8 9,9 - - 16 9 - - S 1006,5 20 0 0,2
17.06.2019 03:00:00 10,8 10,0 - - 21 11 - - S 1006,4 21 0 0,0
17.06.2019 02:00:00 10,5 9,9 - - 9 5 - - SSE 1006,7 17 0 0,2
17.06.2019 01:00:00 10,5 9,6 - - 11 6 - - S 1006,5 30 - 0,0
17.06.2019 00:00:00 9,8 8,6 - - 9 5 - - WSW 1006,3 50 0 0,0
16.06.2019 23:00:00 10,9 8,9 - - 16 9 - - SW 1005,8 50 0 0,0
16.06.2019 22:00:00 11,3 9,3 - - 9 5 - - SSW 1005,0 50 0 0,0
16.06.2019 21:00:00 11,8 11,1 - - 13 7 - - S 1004,3 35 12 0,0
16.06.2019 20:00:00 11,9 11,7 - - 4 2 - - NNE 1003,9 14 6 3,4
16.06.2019 19:00:00 11,6 11,2 - - 8 4 - - NNW 1004,5 11 0 5,6
16.06.2019 18:00:00 11,9 11,0 - - 5 3 - - N 1005,0 7 0 1,4
16.06.2019 17:00:00 12,6 10,9 - - 5 3 - - SSW 1006,0 28 0 0,4
16.06.2019 16:00:00 14,7 8,6 - - 16 9 - - SSE 1006,1 45 0 0,0
16.06.2019 15:00:00 14,6 8,8 - - 13 7 - - SSE 1006,5 50 0 0,0
16.06.2019 14:00:00 14,7 8,3 - - 13 7 - - S 1006,9 45 12 0,0
16.06.2019 13:00:00 14,6 9,2 - - 13 7 - - SSE 1007,0 35 6 0,0
16.06.2019 12:00:00 14,2 8,3 - - 15 8 - - S 1007,4 50 6 0,0
16.06.2019 11:00:00 13,3 8,5 - - 13 7 - - SSE 1007,4 45 36 0,0
16.06.2019 10:00:00 13,4 9,3 15,5 12,7 13 7 - - SSE 1007,6 45 54 0,0
16.06.2019 09:00:00 11,2 9,4 - - 9 5 - - SSE 1007,9 35 36 0,0
16.06.2019 08:00:00 9,3 8,8 - - 9 5 - - ESE 1008,0 18 24 0,0
16.06.2019 07:00:00 8,0 7,7 - - 8 4 - - SSE 1008,0 20 6 0,0
16.06.2019 06:00:00 6,5 6,1 - - 8 4 - - SE 1007,7 13 0 0,0
16.06.2019 05:00:00 7,1 6,5 - - 9 5 - - S 1007,8 50 0 0,0
16.06.2019 04:00:00 7,7 6,9 - - 5 3 - - SSW 1007,9 40 0 0,2
16.06.2019 03:00:00 7,8 7,2 - - 9 5 - - S 1007,7 45 0 0,0
16.06.2019 02:00:00 8,5 8,0 - - 4 2 - - SE 1007,9 8 0 0,0
16.06.2019 01:00:00 9,1 8,7 - - 5 3 - - SE 1008,2 22 - 0,0
16.06.2019 00:00:00 9,3 8,8 - - 2 1 - - WSW 1008,3 45 0 0,4
15.06.2019 23:00:00 9,4 8,6 - - 8 4 - - SE 1008,0 23 0 0,0
15.06.2019 22:00:00 9,8 8,3 - - 2 1 - - W 1007,6 50 0 0,0
15.06.2019 21:00:00 11,1 8,2 - - 9 5 - - SW 1007,6 50 0 0,0
15.06.2019 20:00:00 12,2 8,8 - - 4 2 - - WNW 1007,1 50 0 0,0
15.06.2019 19:00:00 11,9 7,9 - - 9 5 - - NW 1007,1 50 6 0,0
15.06.2019 18:00:00 11,4 9,8 - - 8 4 - - WNW 1007,0 50 0 0,8
15.06.2019 17:00:00 13,6 7,5 - - 15 8 - - WNW 1006,4 45 6 0,0
15.06.2019 16:00:00 15,9 7,8 - - 4 2 - - SSE 1006,1 40 6 0,0
15.06.2019 15:00:00 14,8 5,8 - - 5 3 - - SSW 1006,2 50 18 0,0
15.06.2019 14:00:00 14,9 7,1 - - 8 4 - - SSW 1006,3 45 30 0,0
15.06.2019 13:00:00 12,4 7,0 - - 8 4 - - WSW 1006,5 45 0 0,0
15.06.2019 12:00:00 13,5 7,3 - - 5 3 - - NNW 1006,1 50 48 0,0
15.06.2019 11:00:00 12,5 10,6 - - 5 3 - - NNW 1005,9 45 54 0,0
15.06.2019 10:00:00 10,1 10,1 15,2 12,7 8 4 - - NNE 1006,1 28 18 0,0
15.06.2019 09:00:00 8,1 8,1 - - 4 2 - - NNW 1005,8 0,6 0 0,0
15.06.2019 08:00:00 6,5 6,5 - - 4 2 - - NW 1005,5 0,2 0 0,2
15.06.2019 07:00:00 4,8 4,8 - - 2 1 - - W 1005,5 0,2 6 0,0
15.06.2019 06:00:00 4,4 4,3 - - 2 1 - - SE 1005,5 - 0 0,0
15.06.2019 05:00:00 4,1 4,1 - - 4 2 - - SE 1005,3 0,2 0 0,0
15.06.2019 04:00:00 4,3 4,1 - - 4 2 - - S 1005,1 0,1 0 0,0
15.06.2019 03:00:00 5,5 5,4 - - 4 2 - - SE 1004,9 0,1 0 0,0
15.06.2019 02:00:00 6,0 5,9 - - 4 2 - - E 1004,8 0,2 0 0,0
15.06.2019 01:00:00 7,0 6,8 - - 5 3 - - S 1004,9 0,3 - 0,0
15.06.2019 00:00:00 7,7 7,3 - - 2 1 - - NNW 1004,5 0,6 0 0,0
14.06.2019 23:00:00 8,9 8,4 - - 4 2 - - W 1004,4 9 0 0,2
14.06.2019 22:00:00 9,4 8,8 - - 2 1 - - S 1004,1 17 0 0,4
14.06.2019 21:00:00 9,7 8,5 - - 8 4 - - WNW 1003,8 14 0 0,4
14.06.2019 20:00:00 11,3 9,5 - - 2 1 - - SE 1003,2 40 0 0,0
14.06.2019 19:00:00 10,6 9,0 - - 4 2 - - N 1003,0 45 0 0,6
14.06.2019 18:00:00 11,7 8,8 - - 9 5 - - E 1002,8 28 0 0,0
14.06.2019 17:00:00 13,1 8,5 - - 11 6 - - ENE 1002,6 50 0 0,0
14.06.2019 16:00:00 11,5 8,3 - - 8 4 - - SSE 1002,7 16 0 0,0
14.06.2019 15:00:00 12,2 8,4 - - 9 5 - - SSE 1002,8 45 0 0,0
14.06.2019 14:00:00 12,3 7,7 - - 13 7 - - SSE 1003,0 35 0 0,0
14.06.2019 13:00:00 12,8 6,1 - - 11 6 - - SE 1002,9 45 18 0,0
14.06.2019 12:00:00 12,6 6,5 - - 11 6 - - SSE 1002,9 50 12 0,0
14.06.2019 11:00:00 12,2 5,6 - - 13 7 - - SSE 1003,0 40 54 0,0
14.06.2019 10:00:00 12,1 6,2 15,2 12,5 5 3 - - SSE 1003,0 45 60 0,0
14.06.2019 09:00:00 10,0 6,6 - - 4 2 - - SSE 1003,2 45 60 0,0
14.06.2019 08:00:00 8,2 6,3 - - 8 4 - - SSE 1003,1 45 60 0,0
14.06.2019 07:00:00 6,7 5,7 - - 4 2 - - ESE 1003,0 35 54 0,0
14.06.2019 06:00:00 5,0 4,6 - - 5 3 - - SSE 1003,2 20 0 0,0
14.06.2019 05:00:00 5,2 4,1 - - 5 3 - - SSE 1003,0 23 0 0,0

tt = temperature
td = dewpoint
tt -20cm = temperature -20cm
tt -100cm = temperature -100cm
ff = wind speed
fx = gusts
dd = wind direction
ppp = reduced air pressure
vv = visibility
sd = sunshine duration
rr = precipitation

Next stations